Hourly Data Report for November 03, 2019

All times are specified in Local Standard Time (LST). Add 1 hour to adjust for Daylight Saving Time where and when it is observed.

WOODSTOCK NEWBRIDGE
NEW BRUNSWICK
Current Station Operator: ECCC - MSC

46°09'08.000" N
67°32'34.000" W
154.00 m
8105603
71606
EWD

Download Data

Hourly Data (November 2019)
Hourly Data Report for November 3, 2019
TIME Temp Definition
°C
Dew Point Definition
°C
Rel Hum Definition
%
Wind Dir Definition
10's deg

Wind Spd Definition
km/h
Visibility Definition
km
Stn Press Definition
kPa
Hmdx Definition


Wind Chill Definition


Weather Definition


00:00 -2.2 -3.3 92 9 4   99.97   -4 LegendNANA
01:00 -2.0 -2.9 94 9 5   99.89   -4 LegendNANA
02:00 -1.2 -2.4 92 15 6   99.81   -3 LegendNANA
03:00 -0.3 -1.9 89 10 4   99.68   -2 LegendNANA
04:00 -0.2 -1.8 89 19 4   99.59   -1 LegendNANA
05:00 -0.1 -1.7 89   0   99.54     LegendNANA
06:00 -0.1 -1.5 90 0 1   99.50   0 LegendNANA
07:00 0.1 -1.2 91   0   99.48     LegendNANA
08:00 0.3 -1.0 91 11 2   99.49     LegendNANA
09:00 1.1 -0.6 89 13 4   99.45     LegendNANA
10:00 3.1 0.1 81 21 7   99.47     LegendNANA
11:00 5.4 0.2 69 25 6   99.45     LegendNANA
12:00 6.2 -1.5 58 27 7   99.40     LegendNANA
13:00 7.4 -2.1 51 26 13   99.40     LegendNANA
14:00 7.0 -2.0 53 26 13   99.41     LegendNANA
15:00 8.7 -2.5 45 24 19   99.46     LegendNANA
16:00 7.5 -2.0 51 27 12   99.53     LegendNANA
17:00 6.3 -2.5 53 27 8   99.61     LegendNANA
18:00 4.7 -2.3 60 24 4   99.68     LegendNANA
19:00 1.6 -2.5 74 26 3   99.73     LegendNANA
20:00 -1.2 -3.2 87 18 2   LegendMM   -2 LegendNANA
21:00 0.5 -2.0 83 21 5   99.81     LegendNANA
22:00 0.0 -2.3 84   0   99.87     LegendNANA
23:00 -1.5 -2.8 90 20 3   99.93   -3 LegendNANA

Notes on Data Quality.

Legend

  • E = Estimated
  • M = Missing
  • NA = Not Available
Date modified: